Weather History for VTBU - March, 2013

Change the Weather History Date:

Wednesday, March 20, 2013

  Actual Average Record
Temperature  
Mean Temperature 86 °F -  
Max Temperature 89 °F 88 °F 93 °F (2002)
Min Temperature 82 °F 79 °F 71 °F (2007)
Cooling Degree Days 20    
Growing Degree Days 36 (Base 50)    
Moisture  
Dew Point 75 °F    
Average Humidity 71    
Maximum Humidity 79    
Minimum Humidity 62    
Precipitation  
Precipitation 0.00 in - - ()
Sea Level Pressure  
Sea Level Pressure 29.81 in    
Wind  
Wind Speed 8 mph ()    
Max Wind Speed 12 mph    
Max Gust Speed -    
Visibility 4.3 miles    
Events      
Averages and records for this station are not official NWS values.
T = Trace of Precipitation, MM = Missing Value Source: Averaged Metar Reports

Daily Weather History Graph

Daily Weather History Graph

Search for Another Location

Airport or City:

Trip Planner

Search our weather history database for the weather conditions in past years. The results will help you decide how hot, cold, wet, or windy it might be!

Date:

Astronomy

Mar. 20, 2013 Rise Set
Actual Time 6:20 AM ICT 6:26 PM ICT
Civil Twilight 5:59 AM ICT 6:47 PM ICT
Nautical Twilight 5:34 AM ICT 7:12 PM ICT
Astronomical Twilight 5:09 AM ICT 7:37 PM ICT
Moon 12:28 PM ICT (3/20) 12:41 AM ICT (3/20)
Length of Visible Light 12h 48m
Length of Day
12h 06m
First Quarter, 55% of the Moon is Illuminated
Mar 20
First Quarter
Mar 27
Full
Apr 3
Last Quarter
Apr 10
New
Apr 18
First Quarter

Hourly Weather History & Observations

Time (ICT) Temp. Heat Index Dew Point Humidity Pressure Visibility Wind Dir Wind Speed Gust Speed Precip Events Conditions
12:00 AM 82.4 °F 88.2 °F 73.4 °F 74% 29.80 in 4.3 mi South 9.2 mph - N/A   Scattered Clouds
12:30 AM 82.4 °F 88.2 °F 73.4 °F 74% 29.80 in 4.3 mi South 9.2 mph - N/A   Scattered Clouds
1:00 AM 82.4 °F 88.2 °F 73.4 °F 74% 29.80 in 4.3 mi South 11.5 mph - N/A   Scattered Clouds
1:30 AM 82.4 °F 88.2 °F 73.4 °F 74% 29.77 in 4.3 mi South 9.2 mph - N/A   Scattered Clouds
2:00 AM 82.4 °F 88.2 °F 73.4 °F 74% 29.77 in 4.3 mi South 9.2 mph - N/A   Scattered Clouds
2:30 AM 82.4 °F 88.2 °F 73.4 °F 74% 29.77 in 4.3 mi South 6.9 mph - N/A   Scattered Clouds
3:00 AM 82.4 °F 89.5 °F 75.2 °F 79% 29.77 in 4.3 mi South 9.2 mph - N/A   Scattered Clouds
3:30 AM 82.4 °F 88.2 °F 73.4 °F 74% 29.77 in 4.3 mi South 9.2 mph - N/A   Scattered Clouds
4:30 AM 82.4 °F 88.2 °F 73.4 °F 74% 29.77 in 4.3 mi South 9.2 mph - N/A   Scattered Clouds
5:00 AM 82.4 °F 88.2 °F 73.4 °F 74% 29.80 in 4.3 mi SSW 9.2 mph - N/A   Scattered Clouds
5:30 AM 82.4 °F 88.2 °F 73.4 °F 74% 29.80 in 3.7 mi South 9.2 mph - N/A   Scattered Clouds
6:00 AM 82.4 °F 88.2 °F 73.4 °F 74% 29.80 in 3.7 mi South 6.9 mph - N/A   Mostly Cloudy
6:30 AM 82.4 °F 88.2 °F 73.4 °F 74% 29.80 in 3.7 mi South 9.2 mph - N/A   Mostly Cloudy
7:00 AM 82.4 °F 88.2 °F 73.4 °F 74% 29.83 in 3.7 mi South 9.2 mph - N/A   Mostly Cloudy
7:30 AM 84.2 °F 90.9 °F 73.4 °F 70% 29.83 in 3.7 mi South 9.2 mph - N/A   Mostly Cloudy
8:00 AM 84.2 °F 92.3 °F 75.2 °F 74% 29.83 in 3.7 mi SSE 9.2 mph - N/A   Mostly Cloudy
8:30 AM 86.0 °F 95.1 °F 75.2 °F 70% 29.86 in 4.3 mi SSE 9.2 mph - N/A   Mostly Cloudy
9:00 AM 86.0 °F 95.1 °F 75.2 °F 70% 29.86 in 4.3 mi South 6.9 mph - N/A   Mostly Cloudy
9:30 AM 86.0 °F 95.1 °F 75.2 °F 70% 29.86 in 5.0 mi South 9.2 mph - N/A   Mostly Cloudy
10:00 AM 87.8 °F 97.6 °F 75.2 °F 66% 29.86 in 5.0 mi SSE 9.2 mph - N/A   Mostly Cloudy
10:30 AM 87.8 °F 97.6 °F 75.2 °F 66% 29.86 in 5.0 mi SSE 6.9 mph - N/A   Mostly Cloudy
11:00 AM 87.8 °F 99.7 °F 77.0 °F 70% 29.86 in 5.0 mi SSE 6.9 mph - N/A   Mostly Cloudy
11:30 AM 89.6 °F 99.8 °F 75.2 °F 62% 29.86 in 5.0 mi South 6.9 mph - N/A   Mostly Cloudy
12:00 PM 89.6 °F 99.8 °F 75.2 °F 62% 29.83 in 5.0 mi SSE 6.9 mph - N/A   Mostly Cloudy
12:30 PM 89.6 °F 102.2 °F 77.0 °F 66% 29.83 in 5.0 mi SSE 9.2 mph - N/A   Mostly Cloudy
1:00 PM 87.8 °F 97.6 °F 75.2 °F 66% 29.83 in 5.0 mi South 9.2 mph - N/A   Mostly Cloudy
1:30 PM 89.6 °F 99.8 °F 75.2 °F 62% 29.80 in 5.0 mi South 9.2 mph - N/A   Mostly Cloudy
2:00 PM 89.6 °F 99.8 °F 75.2 °F 62% 29.80 in 5.0 mi South 11.5 mph - N/A   Mostly Cloudy
2:30 PM 89.6 °F 102.2 °F 77.0 °F 66% 29.77 in 5.0 mi South 9.2 mph - N/A   Mostly Cloudy
3:00 PM 89.6 °F 99.8 °F 75.2 °F 62% 29.77 in 5.0 mi South 9.2 mph - N/A   Mostly Cloudy
3:30 PM 87.8 °F 97.6 °F 75.2 °F 66% 29.77 in 5.0 mi South 9.2 mph - N/A   Mostly Cloudy
4:00 PM 87.8 °F 97.6 °F 75.2 °F 66% 29.77 in 5.0 mi South 9.2 mph - N/A   Mostly Cloudy
4:30 PM 87.8 °F 97.6 °F 75.2 °F 66% 29.77 in 5.0 mi South 9.2 mph - N/A   Mostly Cloudy
5:00 PM 86.0 °F 95.1 °F 75.2 °F 70% 29.77 in 5.0 mi South 9.2 mph - N/A   Mostly Cloudy
5:30 PM 86.0 °F 95.1 °F 75.2 °F 70% 29.77 in 5.0 mi South 9.2 mph - N/A   Mostly Cloudy
6:00 PM 84.2 °F 92.3 °F 75.2 °F 74% 29.77 in 4.3 mi South 9.2 mph - N/A   Mostly Cloudy
6:30 PM 84.2 °F 92.3 °F 75.2 °F 74% 29.77 in 3.7 mi South 9.2 mph - N/A   Mostly Cloudy
7:00 PM 84.2 °F 92.3 °F 75.2 °F 74% 29.77 in 3.7 mi SSE 9.2 mph - N/A   Mostly Cloudy
7:30 PM 84.2 °F 92.3 °F 75.2 °F 74% 29.77 in 3.7 mi South 10.4 mph - N/A   Mostly Cloudy
8:00 PM 84.2 °F 92.3 °F 75.2 °F 74% 29.80 in 3.7 mi South 10.4 mph - N/A   Mostly Cloudy
8:30 PM 84.2 °F 92.3 °F 75.2 °F 74% 29.80 in 3.7 mi South 10.4 mph - N/A   Mostly Cloudy
9:00 PM 84.2 °F 92.3 °F 75.2 °F 74% 29.83 in 3.7 mi South 10.4 mph - N/A   Mostly Cloudy
9:30 PM 84.2 °F 92.3 °F 75.2 °F 74% 29.83 in 3.7 mi South 9.2 mph - N/A   Mostly Cloudy
10:00 PM 84.2 °F 92.3 °F 75.2 °F 74% 29.83 in 3.7 mi South 9.2 mph - N/A   Mostly Cloudy
10:30 PM 84.2 °F 92.3 °F 75.2 °F 74% 29.83 in 3.7 mi South 9.2 mph - N/A   Mostly Cloudy
11:00 PM 84.2 °F 92.3 °F 75.2 °F 74% 29.83 in 3.7 mi South 9.2 mph - N/A   Mostly Cloudy
11:30 PM 84.2 °F 92.3 °F 75.2 °F 74% 29.83 in 3.7 mi South 6.9 mph - N/A   Mostly Cloudy